GEC8280 EDDP-EGNX

Flight info

Callsign GEC8280
Flight time 1h 30m
Altitude 32000
Route PENEM1E PENEM Y233 EMBOX L986 POVEL DCT GALSO Q63 ERING L179 LAM L610 HEMEL
Aircraft MD11/H-SDE2E3FGHIJ3J7M3P2RWXYZ/LB1D1

Departure

Time 2026-05-06 09:16
Airport Leipzig/Halle Airport (EDDP)

Arrival

Time 2026-05-06 10:47
Airport East Midlands Airport (EGNX)
Time Latitude Longitude Altitude Speed Heading
2026-05-06 08:35 51.40842 12.23561 476 ft 0 kts 266°
2026-05-06 09:03 51.40843 12.23592 474 ft 4 kts 266°
2026-05-06 09:03 51.40845 12.23630 470 ft 4 kts 279°
2026-05-06 09:03 51.40838 12.23660 471 ft 4 kts 324°
2026-05-06 09:04 51.40817 12.23674 469 ft 4 kts 355°
2026-05-06 09:04 51.40798 12.23676 469 ft 1 kts 356°
2026-05-06 09:04 51.40795 12.23676 469 ft 0 kts 356°
2026-05-06 09:09 51.40796 12.23676 473 ft 1 kts 356°
2026-05-06 09:09 51.40809 12.23675 474 ft 3 kts 356°
2026-05-06 09:09 51.40837 12.23672 473 ft 5 kts 356°
2026-05-06 09:09 51.40886 12.23667 472 ft 9 kts 356°
2026-05-06 09:10 51.40952 12.23659 475 ft 8 kts 354°
2026-05-06 09:10 51.40986 12.23654 480 ft 3 kts 353°
2026-05-06 09:10 51.41016 12.23652 483 ft 5 kts
2026-05-06 09:10 51.41048 12.23700 483 ft 8 kts 64°
2026-05-06 09:11 51.41060 12.23827 476 ft 15 kts 85°
2026-05-06 09:11 51.41068 12.24013 478 ft 18 kts 85°
2026-05-06 09:11 51.41078 12.24215 475 ft 19 kts 86°
2026-05-06 09:11 51.41088 12.24426 474 ft 19 kts 85°
2026-05-06 09:12 51.41097 12.24632 477 ft 18 kts 86°
2026-05-06 09:12 51.41106 12.24827 482 ft 17 kts 85°
2026-05-06 09:12 51.41114 12.25006 487 ft 15 kts 86°
2026-05-06 09:12 51.41122 12.25170 484 ft 15 kts 85°
2026-05-06 09:13 51.41130 12.25338 488 ft 15 kts 85°
2026-05-06 09:13 51.41137 12.25493 485 ft 14 kts 86°
2026-05-06 09:13 51.41156 12.25611 477 ft 5 kts 45°
2026-05-06 09:13 51.41191 12.25622 483 ft 6 kts
2026-05-06 09:14 51.41234 12.25621 483 ft 7 kts 356°
2026-05-06 09:14 51.41285 12.25616 479 ft 8 kts 356°
2026-05-06 09:14 51.41354 12.25608 479 ft 10 kts 353°
2026-05-06 09:14 51.41395 12.25553 479 ft 6 kts 290°
2026-05-06 09:15 51.41396 12.25471 485 ft 9 kts 267°
2026-05-06 09:15 51.41387 12.25232 479 ft 25 kts 266°
2026-05-06 09:15 51.41385 12.25189 479 ft 0 kts 265°
2026-05-06 09:15 51.41383 12.25170 480 ft 9 kts 265°
2026-05-06 09:16 51.41360 12.24653 479 ft 88 kts 266°
2026-05-06 09:16 51.41293 12.23262 480 ft 159 kts 266°
2026-05-06 09:16 51.41204 12.21329 887 ft 178 kts 266°
2026-05-06 09:16 51.41112 12.19409 2051 ft 168 kts 265°
2026-05-06 09:17 51.41025 12.17520 3041 ft 172 kts 266°
2026-05-06 09:17 51.40940 12.15602 3996 ft 178 kts 265°
2026-05-06 09:17 51.40851 12.13428 4348 ft 208 kts 269°
2026-05-06 09:17 51.41087 12.11085 4941 ft 228 kts 290°
2026-05-06 09:18 51.42148 12.08994 5134 ft 261 kts 327°
2026-05-06 09:18 51.43910 12.08138 5887 ft 275 kts 350°
2026-05-06 09:18 51.45824 12.08011 6790 ft 276 kts 356°
2026-05-06 09:18 51.47766 12.08046 7707 ft 280 kts 357°
2026-05-06 09:19 51.49729 12.08095 8602 ft 285 kts 357°
2026-05-06 09:19 51.51740 12.08134 9483 ft 290 kts 356°
2026-05-06 09:19 51.53771 12.08188 10242 ft 299 kts 357°
2026-05-06 09:19 51.55958 12.08262 10386 ft 329 kts 358°
2026-05-06 09:20 51.58359 12.08347 10524 ft 359 kts 358°
2026-05-06 09:20 51.60891 12.08444 11204 ft 367 kts 358°
2026-05-06 09:20 51.63470 12.08548 12041 ft 373 kts 358°
2026-05-06 09:20 51.66076 12.08646 12857 ft 377 kts 357°
2026-05-06 09:21 51.68664 12.08437 13599 ft 379 kts 348°
2026-05-06 09:21 51.71193 12.07285 14281 ft 377 kts 331°
2026-05-06 09:21 51.73372 12.04997 14967 ft 375 kts 315°
2026-05-06 09:21 51.75223 12.02018 15639 ft 377 kts 308°
2026-05-06 09:22 51.76980 11.98761 16304 ft 381 kts 307°
2026-05-06 09:22 51.78708 11.95472 16952 ft 386 kts 307°
2026-05-06 09:22 51.80500 11.92104 17586 ft 390 kts 307°
2026-05-06 09:22 51.81701 11.89881 18005 ft 394 kts 308°
2026-05-06 09:23 51.84149 11.85419 18729 ft 399 kts 308°
2026-05-06 09:23 51.85332 11.83137 19043 ft 400 kts 304°
2026-05-06 09:23 51.87001 11.79516 19544 ft 403 kts 302°
2026-05-06 09:23 51.89123 11.74543 20212 ft 407 kts 301°
2026-05-06 09:24 51.90720 11.70717 20717 ft 411 kts 301°
2026-05-06 09:24 51.92327 11.66863 21230 ft 415 kts 301°
2026-05-06 09:24 51.93422 11.64245 21585 ft 417 kts 301°
2026-05-06 09:24 51.95057 11.60331 22105 ft 421 kts 299°
2026-05-06 09:25 51.96308 11.56130 22646 ft 418 kts 284°
2026-05-06 09:25 51.96844 11.51516 23158 ft 417 kts 269°
2026-05-06 09:25 51.96625 11.46844 23624 ft 417 kts 257°
2026-05-06 09:25 51.96059 11.42436 25084 ft 368 kts 256°
2026-05-06 09:26 51.95570 11.38384 25971 ft 371 kts 258°
2026-05-06 09:26 51.95234 11.34157 26104 ft 383 kts 263°
2026-05-06 09:26 51.95053 11.29789 26248 ft 394 kts 265°
2026-05-06 09:26 51.94977 11.25293 26376 ft 404 kts 267°
2026-05-06 09:27 51.94963 11.20667 26528 ft 414 kts 268°
2026-05-06 09:27 51.94982 11.16012 26650 ft 424 kts 268°
2026-05-06 09:27 51.95015 11.11170 26795 ft 434 kts 269°
2026-05-06 09:27 51.95053 11.06220 26932 ft 445 kts 269°
2026-05-06 09:28 51.95090 11.01126 27090 ft 456 kts 269°
2026-05-06 09:28 51.95125 10.95954 27473 ft 462 kts 269°
2026-05-06 09:28 51.95158 10.90711 27895 ft 467 kts 269°
2026-05-06 09:28 51.95187 10.85430 28314 ft 471 kts 269°
2026-05-06 09:29 51.95213 10.80087 28747 ft 475 kts 268°
2026-05-06 09:29 51.95237 10.74687 29247 ft 478 kts 269°
2026-05-06 09:29 51.95258 10.69307 29839 ft 479 kts 268°
2026-05-06 09:29 51.95278 10.63897 30370 ft 477 kts 268°
2026-05-06 09:30 51.95294 10.58508 30760 ft 475 kts 268°
2026-05-06 09:30 51.95308 10.53161 31134 ft 472 kts 268°
2026-05-06 09:30 51.95319 10.47848 31517 ft 469 kts 268°
2026-05-06 09:30 51.95328 10.42564 31729 ft 467 kts 268°
2026-05-06 09:31 51.95333 10.37284 31774 ft 473 kts 268°
2026-05-06 09:31 51.95327 10.26564 31782 ft 475 kts 267°
2026-05-06 09:32 51.95270 10.15847 31781 ft 475 kts 267°
2026-05-06 09:32 51.95230 10.05194 31776 ft 476 kts 267°
2026-05-06 09:33 51.95201 9.94462 31778 ft 475 kts 267°
2026-05-06 09:33 51.95168 9.83750 31777 ft 475 kts 267°
2026-05-06 09:34 51.95125 9.72967 31776 ft 475 kts 267°
2026-05-06 09:34 51.95071 9.62214 31783 ft 475 kts 267°
2026-05-06 09:35 51.95007 9.51566 31784 ft 474 kts 267°
2026-05-06 09:35 51.94934 9.40945 31781 ft 474 kts 267°
2026-05-06 09:36 51.94852 9.30279 31783 ft 473 kts 267°
2026-05-06 09:36 51.94759 9.19606 31779 ft 473 kts 267°
2026-05-06 09:37 51.94657 9.08939 31782 ft 473 kts 267°
2026-05-06 09:37 51.94545 8.98273 31796 ft 473 kts 267°
2026-05-06 09:38 51.94396 8.87633 31783 ft 472 kts 266°
2026-05-06 09:38 51.94219 8.76982 31780 ft 472 kts 267°
2026-05-06 09:39 51.94064 8.66346 31785 ft 472 kts 267°
2026-05-06 09:39 51.93913 8.55704 31793 ft 472 kts 267°
2026-05-06 09:40 51.93755 8.45081 31796 ft 472 kts 267°
2026-05-06 09:40 51.93499 8.29108 31788 ft 472 kts 267°
2026-05-06 09:41 51.93315 8.18483 31785 ft 472 kts 266°
2026-05-06 09:41 51.93122 8.07831 31810 ft 472 kts 266°
2026-05-06 09:42 51.92919 7.97201 31816 ft 472 kts 266°
2026-05-06 09:42 51.92707 7.86549 31802 ft 473 kts 266°
2026-05-06 09:43 51.92484 7.75892 31811 ft 473 kts 266°
2026-05-06 09:43 51.92253 7.65298 31809 ft 473 kts 266°
2026-05-06 09:44 51.91991 7.54640 31807 ft 473 kts 266°
2026-05-06 09:44 51.91690 7.43983 31819 ft 473 kts 266°
2026-05-06 09:45 51.91407 7.33244 31824 ft 473 kts 266°
2026-05-06 09:45 51.91137 7.22664 31809 ft 473 kts 266°
2026-05-06 09:46 51.90858 7.12011 31815 ft 474 kts 266°
2026-05-06 09:46 51.90569 7.01348 31820 ft 474 kts 266°
2026-05-06 09:47 51.90269 6.90694 31828 ft 474 kts 266°
2026-05-06 09:47 51.89959 6.80028 31830 ft 473 kts 265°
2026-05-06 09:48 51.89640 6.69382 31830 ft 473 kts 265°
2026-05-06 09:48 51.89314 6.58808 31832 ft 473 kts 265°
2026-05-06 09:49 51.88975 6.48160 31836 ft 473 kts 265°
2026-05-06 09:49 51.88627 6.37513 31839 ft 473 kts 265°
2026-05-06 09:50 51.88270 6.26884 31838 ft 473 kts 265°
2026-05-06 09:50 51.87862 6.16253 31846 ft 473 kts 265°
2026-05-06 09:51 51.87447 6.05615 31851 ft 473 kts 265°
2026-05-06 09:51 51.87053 5.95051 31850 ft 473 kts 265°
2026-05-06 09:52 51.86659 5.84445 31850 ft 472 kts 265°
2026-05-06 09:52 51.86255 5.73828 31849 ft 472 kts 265°
2026-05-06 09:53 51.85842 5.63241 31850 ft 471 kts 265°
2026-05-06 09:53 51.85419 5.52645 31849 ft 471 kts 264°
2026-05-06 09:54 51.84987 5.42081 31846 ft 471 kts 264°
2026-05-06 09:54 51.84545 5.31486 31848 ft 470 kts 264°
2026-05-06 09:55 51.84095 5.20941 31847 ft 470 kts 264°
2026-05-06 09:55 51.83636 5.10408 31852 ft 470 kts 264°
2026-05-06 09:56 51.83168 4.99890 31857 ft 469 kts 264°
2026-05-06 09:56 51.82684 4.89359 31860 ft 468 kts 263°
2026-05-06 09:57 51.82161 4.79101 31870 ft 468 kts 264°
2026-05-06 09:57 51.81637 4.68621 31876 ft 468 kts 264°
2026-05-06 09:58 51.81126 4.58129 31878 ft 468 kts 264°
2026-05-06 09:58 51.80612 4.47618 31881 ft 468 kts 264°
2026-05-06 09:59 51.80089 4.37125 31881 ft 468 kts 264°
2026-05-06 09:59 51.79558 4.26650 31883 ft 468 kts 264°
2026-05-06 10:00 51.79017 4.16180 31879 ft 468 kts 264°
2026-05-06 10:00 51.78466 4.05700 31877 ft 468 kts 264°
2026-05-06 10:01 51.77904 3.95200 31876 ft 468 kts 264°
2026-05-06 10:01 51.77335 3.84727 31875 ft 469 kts 264°
2026-05-06 10:02 51.76853 3.76004 31874 ft 469 kts 264°
2026-05-06 10:02 51.76265 3.65512 31880 ft 469 kts 263°
2026-05-06 10:03 51.75660 3.55033 31883 ft 468 kts 263°
2026-05-06 10:03 51.75003 3.44568 31890 ft 468 kts 263°
2026-05-06 10:04 51.74363 3.34118 31893 ft 468 kts 263°
2026-05-06 10:04 51.73736 3.23691 31897 ft 467 kts 263°
2026-05-06 10:05 51.72968 3.13294 31906 ft 466 kts 261°
2026-05-06 10:05 51.72069 3.02955 31914 ft 465 kts 261°
2026-05-06 10:06 51.71162 2.92625 31916 ft 465 kts 261°
2026-05-06 10:06 51.70259 2.82305 31920 ft 464 kts 260°
2026-05-06 10:07 51.69355 2.72018 31921 ft 463 kts 261°
2026-05-06 10:07 51.68433 2.61760 31928 ft 462 kts 260°
2026-05-06 10:08 51.67500 2.51511 31932 ft 462 kts 260°
2026-05-06 10:08 51.66561 2.41260 31929 ft 462 kts 260°
2026-05-06 10:09 51.65622 2.31030 31938 ft 461 kts 260°
2026-05-06 10:09 51.64678 2.20813 31938 ft 461 kts 260°
2026-05-06 10:10 51.63726 2.10606 31941 ft 461 kts 260°
2026-05-06 10:10 51.62770 2.00389 31942 ft 461 kts 260°
2026-05-06 10:11 51.61816 1.90192 31954 ft 461 kts 260°
2026-05-06 10:11 51.60857 1.79984 31957 ft 461 kts 260°
2026-05-06 10:12 51.59892 1.69787 31960 ft 460 kts 260°
2026-05-06 10:12 51.59136 1.59643 31951 ft 461 kts 267°
2026-05-06 10:13 51.59408 1.49322 31951 ft 462 kts 273°
2026-05-06 10:13 51.59959 1.39008 31955 ft 462 kts 273°
2026-05-06 10:14 51.60454 1.28702 31964 ft 462 kts 272°
2026-05-06 10:14 51.60883 1.18394 31965 ft 461 kts 272°
2026-05-06 10:15 51.61085 1.13388 31790 ft 444 kts 272°
2026-05-06 10:15 51.61283 1.08443 31374 ft 434 kts 272°
2026-05-06 10:15 51.61471 1.03689 30993 ft 430 kts 272°
2026-05-06 10:15 51.61660 0.98874 30622 ft 431 kts 272°
2026-05-06 10:16 51.61848 0.94048 30242 ft 432 kts 272°
2026-05-06 10:16 51.62029 0.89237 30045 ft 431 kts 272°
2026-05-06 10:16 51.62385 0.79561 29962 ft 433 kts 271°
2026-05-06 10:17 51.62737 0.69892 29969 ft 432 kts 271°
2026-05-06 10:17 51.63059 0.60872 29964 ft 432 kts 271°
2026-05-06 10:18 51.63396 0.51271 29966 ft 432 kts 271°
2026-05-06 10:18 51.63728 0.41625 29965 ft 432 kts 271°
2026-05-06 10:19 51.64058 0.31881 29842 ft 432 kts 271°
2026-05-06 10:19 51.64376 0.22274 29644 ft 434 kts 271°
2026-05-06 10:20 51.64573 0.17416 28942 ft 433 kts 276°
2026-05-06 10:20 51.65236 0.12677 28315 ft 437 kts 287°
2026-05-06 10:20 51.66316 0.08188 27719 ft 440 kts 292°
2026-05-06 10:20 51.67596 0.03712 27123 ft 441 kts 294°
2026-05-06 10:21 51.68929 -0.00750 26607 ft 442 kts 295°
2026-05-06 10:21 51.70255 -0.05215 25963 ft 438 kts 294°
2026-05-06 10:21 51.71543 -0.09643 25349 ft 433 kts 294°
2026-05-06 10:21 51.72796 -0.14034 24730 ft 429 kts 294°
2026-05-06 10:22 51.74027 -0.18413 24123 ft 425 kts 293°
2026-05-06 10:22 51.75220 -0.22693 23517 ft 422 kts 293°
2026-05-06 10:22 51.76412 -0.26990 23051 ft 418 kts 293°
2026-05-06 10:22 51.77593 -0.31265 22648 ft 415 kts 293°
2026-05-06 10:23 51.78763 -0.35503 22216 ft 412 kts 293°
2026-05-06 10:23 51.80018 -0.39643 22029 ft 410 kts 300°
2026-05-06 10:23 51.81803 -0.43223 21976 ft 412 kts 316°
2026-05-06 10:23 51.84096 -0.46025 21925 ft 414 kts 326°
2026-05-06 10:24 51.86580 -0.48394 21857 ft 415 kts 329°
2026-05-06 10:24 51.89112 -0.50645 21784 ft 414 kts 329°
2026-05-06 10:24 51.91643 -0.52912 21709 ft 414 kts 328°
2026-05-06 10:24 51.94145 -0.55218 21660 ft 413 kts 328°
2026-05-06 10:25 51.96630 -0.57570 21614 ft 413 kts 327°
2026-05-06 10:25 51.99068 -0.59919 21549 ft 412 kts 327°
2026-05-06 10:25 52.01524 -0.62313 21482 ft 412 kts 327°
2026-05-06 10:25 52.03980 -0.64721 21426 ft 411 kts 327°
2026-05-06 10:26 52.06430 -0.67129 21347 ft 411 kts 327°
2026-05-06 10:26 52.08878 -0.69540 21292 ft 411 kts 327°
2026-05-06 10:26 52.11318 -0.71945 21134 ft 412 kts 327°
2026-05-06 10:26 52.13762 -0.74357 20617 ft 408 kts 327°
2026-05-06 10:27 52.16179 -0.76745 20076 ft 405 kts 327°
2026-05-06 10:27 52.18580 -0.79120 19484 ft 401 kts 327°
2026-05-06 10:27 52.20957 -0.81473 18895 ft 397 kts 327°
2026-05-06 10:27 52.23311 -0.83806 18323 ft 393 kts 327°
2026-05-06 10:28 52.25632 -0.86117 17721 ft 389 kts 327°
2026-05-06 10:28 52.27936 -0.88416 17446 ft 387 kts 327°
2026-05-06 10:28 52.30197 -0.90668 17334 ft 369 kts 327°
2026-05-06 10:28 52.32305 -0.92765 17240 ft 350 kts 327°
2026-05-06 10:29 52.34338 -0.94786 17075 ft 333 kts 327°
2026-05-06 10:29 52.36269 -0.96707 16971 ft 317 kts 327°
2026-05-06 10:29 52.38132 -0.98563 16662 ft 311 kts 327°
2026-05-06 10:29 52.40057 -1.00154 16169 ft 310 kts 339°
2026-05-06 10:30 52.42187 -1.00720 15573 ft 313 kts 356°
2026-05-06 10:30 52.44369 -1.00687 15020 ft 315 kts 360°
2026-05-06 10:30 52.46566 -1.00535 14473 ft 316 kts
2026-05-06 10:30 52.48758 -1.00365 13915 ft 316 kts
2026-05-06 10:31 52.50957 -1.00191 13390 ft 315 kts
2026-05-06 10:31 52.53115 -1.00023 13099 ft 305 kts
2026-05-06 10:31 52.55184 -0.99857 12985 ft 289 kts
2026-05-06 10:31 52.57144 -0.99693 12913 ft 275 kts
2026-05-06 10:32 52.59015 -0.99531 12738 ft 265 kts
2026-05-06 10:32 52.60886 -0.99371 12220 ft 268 kts
2026-05-06 10:32 52.62710 -0.99213 12082 ft 257 kts
2026-05-06 10:32 52.64462 -0.99059 11763 ft 254 kts
2026-05-06 10:33 52.66219 -0.98900 11405 ft 252 kts
2026-05-06 10:33 52.67942 -0.99116 11003 ft 246 kts 339°
2026-05-06 10:33 52.69351 -1.00601 10657 ft 242 kts 310°
2026-05-06 10:33 52.70100 -1.03043 10261 ft 242 kts 283°
2026-05-06 10:34 52.70312 -1.05804 9863 ft 243 kts 276°
2026-05-06 10:34 52.70422 -1.08583 9484 ft 242 kts 275°
2026-05-06 10:34 52.70516 -1.11353 9110 ft 242 kts 275°
2026-05-06 10:34 52.70597 -1.14118 8716 ft 241 kts 275°
2026-05-06 10:35 52.70670 -1.16847 8351 ft 241 kts 275°
2026-05-06 10:35 52.70734 -1.19603 8007 ft 240 kts 275°
2026-05-06 10:35 52.70800 -1.22485 6978 ft 266 kts 275°
2026-05-06 10:35 52.70862 -1.25480 6833 ft 256 kts 275°
2026-05-06 10:36 52.70912 -1.28352 6691 ft 245 kts 275°
2026-05-06 10:36 52.70951 -1.31117 6536 ft 237 kts 275°
2026-05-06 10:36 52.70985 -1.33847 6065 ft 243 kts 275°
2026-05-06 10:36 52.71023 -1.36582 5861 ft 236 kts 275°
2026-05-06 10:37 52.71062 -1.39283 5536 ft 235 kts 275°
2026-05-06 10:37 52.71104 -1.41988 5210 ft 236 kts 275°
2026-05-06 10:37 52.71146 -1.44688 4867 ft 236 kts 275°
2026-05-06 10:37 52.71188 -1.47388 4577 ft 235 kts 275°
2026-05-06 10:38 52.71236 -1.50048 4247 ft 235 kts 275°
2026-05-06 10:38 52.71287 -1.52744 3964 ft 234 kts 275°
2026-05-06 10:38 52.71342 -1.55454 3690 ft 233 kts 275°
2026-05-06 10:38 52.71403 -1.58078 3411 ft 232 kts 275°
2026-05-06 10:39 52.71466 -1.60729 3140 ft 231 kts 275°
2026-05-06 10:39 52.71532 -1.63372 2984 ft 230 kts 276°
2026-05-06 10:39 52.71600 -1.66005 2991 ft 232 kts 275°
2026-05-06 10:39 52.71698 -1.68654 2962 ft 231 kts 283°
2026-05-06 10:40 52.72360 -1.70976 2976 ft 221 kts 315°
2026-05-06 10:40 52.73634 -1.72283 2982 ft 215 kts 348°
2026-05-06 10:40 52.75101 -1.72222 3025 ft 212 kts 17°
2026-05-06 10:40 52.76515 -1.71465 2977 ft 211 kts 20°
2026-05-06 10:41 52.77842 -1.70691 2979 ft 196 kts 20°
2026-05-06 10:41 52.79120 -1.69948 2991 ft 194 kts 20°
2026-05-06 10:41 52.80395 -1.69202 3000 ft 195 kts 20°
2026-05-06 10:41 52.81655 -1.68474 2995 ft 194 kts 20°
2026-05-06 10:42 52.82821 -1.67421 2957 ft 192 kts 47°
2026-05-06 10:42 52.83306 -1.65407 3004 ft 196 kts 87°
2026-05-06 10:42 52.83145 -1.63144 3021 ft 201 kts 95°
2026-05-06 10:42 52.82961 -1.60804 3006 ft 199 kts 92°
2026-05-06 10:43 52.82828 -1.58594 2977 ft 190 kts 91°
2026-05-06 10:43 52.82742 -1.56414 2996 ft 190 kts 89°
2026-05-06 10:43 52.82711 -1.54972 2845 ft 186 kts 88°
2026-05-06 10:44 52.82777 -1.50225 2259 ft 166 kts 84°
2026-05-06 10:44 52.82801 -1.48968 2085 ft 159 kts 83°
2026-05-06 10:44 52.82849 -1.46563 1809 ft 157 kts 84°
2026-05-06 10:44 52.82881 -1.44776 1611 ft 156 kts 83°
2026-05-06 10:45 52.82904 -1.43580 1455 ft 156 kts 84°
2026-05-06 10:45 52.82938 -1.41785 1248 ft 156 kts 84°
2026-05-06 10:45 52.82977 -1.39984 1017 ft 157 kts 84°
2026-05-06 10:45 52.83008 -1.38177 790 ft 157 kts 85°
2026-05-06 10:46 52.83022 -1.36397 543 ft 154 kts 85°
2026-05-06 10:46 52.83068 -1.34636 326 ft 152 kts 85°
2026-05-06 10:46 52.83095 -1.33102 316 ft 107 kts 89°
2026-05-06 10:46 52.83112 -1.32196 313 ft 53 kts 88°
2026-05-06 10:47 52.83120 -1.31739 317 ft 32 kts 88°
2026-05-06 10:47 52.83125 -1.31441 314 ft 18 kts 88°
2026-05-06 10:47 52.83099 -1.31330 314 ft 8 kts 148°
2026-05-06 10:47 52.83034 -1.31316 310 ft 11 kts 180°
2026-05-06 10:48 52.82972 -1.31351 310 ft 9 kts 229°
2026-05-06 10:48 52.82955 -1.31472 308 ft 12 kts 269°
2026-05-06 10:48 52.82953 -1.31612 308 ft 12 kts 268°
2026-05-06 10:48 52.82950 -1.31757 308 ft 15 kts 268°
2026-05-06 10:49 52.82947 -1.31938 311 ft 16 kts 268°
2026-05-06 10:49 52.82944 -1.32116 308 ft 15 kts 268°
2026-05-06 10:49 52.82941 -1.32288 308 ft 15 kts 269°
2026-05-06 10:49 52.82939 -1.32457 309 ft 14 kts 268°
2026-05-06 10:50 52.82935 -1.32619 308 ft 14 kts 268°
2026-05-06 10:50 52.82932 -1.32788 312 ft 15 kts 268°
2026-05-06 10:50 52.82928 -1.32966 309 ft 17 kts 268°
2026-05-06 10:50 52.82925 -1.33174 309 ft 19 kts 269°
2026-05-06 10:51 52.82921 -1.33394 315 ft 18 kts 268°
2026-05-06 10:51 52.82916 -1.33602 314 ft 18 kts 268°
2026-05-06 10:51 52.82914 -1.33793 312 ft 15 kts 268°
2026-05-06 10:51 52.82910 -1.33971 311 ft 17 kts 268°
2026-05-06 10:52 52.82906 -1.34195 311 ft 21 kts 268°
2026-05-06 10:52 52.82902 -1.34375 314 ft 11 kts 249°
2026-05-06 10:52 52.82854 -1.34434 311 ft 10 kts 220°
2026-05-06 10:52 52.82832 -1.34570 309 ft 13 kts 267°
2026-05-06 10:53 52.82829 -1.34714 308 ft 12 kts 268°
2026-05-06 10:53 52.82827 -1.34846 308 ft 11 kts 268°
2026-05-06 10:53 52.82825 -1.34963 308 ft 8 kts 268°
2026-05-06 10:53 52.82814 -1.35021 310 ft 5 kts 230°
2026-05-06 10:54 52.82776 -1.35036 310 ft 7 kts 182°
2026-05-06 10:54 52.82751 -1.35036 311 ft 0 kts 179°